Regional Weather Roundup
Issued by NWS

Home | Current Version | Previous Version | Graphics & Text | Print | Product List | Glossary On
Versions: 1 2 3 4 5 6 7 8 9 10 11 12 13 14 15 16 17 18 19 20 21 22 23 24 25 26 27 28 29 30 31 32 33 34 35 36 37 38 39 40 41 42 43 44 45 46 47 48 49 50
000
ASUS43 KMKX 021200
RWRWI

WISCONSIN REGIONAL WEATHER ROUNDUP
NATIONAL WEATHER SERVICE MILWAUKEE/SULLIVAN WI
700 AM CDT SUN AUG 02 2015

NOTE: "FAIR" INDICATES FEW OR NO CLOUDS BELOW 12,000 FEET WITH NO
SIGNIFICANT WEATHER AND/OR OBSTRUCTIONS TO VISIBILITY.

WIZ001-002-006>008-014>016-023>028-021300-
NORTHWEST WISCONSIN

CITY           SKY/WX    TMP DP  RH WIND       PRES   REMARKS
SUPERIOR ARPT  MOSUNNY   60  58  94 CALM      29.65R
ASHLAND        PTSUNNY   65  64  97 S5        29.66R
6HR MIN TEMP:  58; 6HR MAX TEMP:  68;

HAYWARD        CLOUDY    67  64  90 CALM      29.67R
6HR MIN TEMP:  64; 6HR MAX TEMP:  71; 6HR PCP: TRACE;

SIREN          MOCLDY    63  61  94 NE5       29.67R
CUMBERLAND     CLOUDY    64  63  94 S3        29.67F
RICE LAKE      CLOUDY    65  63  91 S6        29.69F
CHETEK         CLOUDY    67  65  93 CALM      29.67F
LADYSMITH      CLOUDY    67  65  92 W15       29.69F
6HR MIN TEMP:  64; 6HR MAX TEMP:  70;

EAU CLAIRE     MOSUNNY   68  65  90 CALM      29.69R
6HR MIN TEMP:  68; 6HR MAX TEMP:  71; 6HR PCP:  0.03;

MENOMONIE      MOSUNNY   68  64  89 CALM      29.70R
6HR MIN TEMP:  68; 6HR MAX TEMP:  73;

NEW RICHMOND   PTCLDY    65  64  97 S3        29.69R
OSCEOLA        PTCLDY    67  67 100 E5        29.69F
$$

WIZ003>005-009-010-017-018-021300-
NORTH CENTRAL WISCONSIN

CITY           SKY/WX    TMP DP  RH WIND       PRES   REMARKS
MANITOWISH WTR PTSUNNY   64  64 100 N3        29.70R
ARBOR VITAE    MOSUNNY   65  63  94 S3        29.69S
WOODRUFF       MOSUNNY   65  63  94 S3        29.69S
RHINELANDER    CLOUDY    68  64  87 SW12      29.71R
6HR MIN TEMP:  63; 6HR MAX TEMP:  68;

EAGLE RIVER    MOSUNNY   63  63  99 CALM      29.69S
LAND O LAKES   PTSUNNY   62  62  99 W3        29.70R
PHILLIPS       TSTM      65  63  94 SW26G37   29.74R
6HR MIN TEMP:  63; 6HR MAX TEMP:  67; 6HR PCP:  0.24;

TOMAHAWK       MOSUNNY   61  60  97 CALM      29.72R FOG
MEDFORD        MOSUNNY   66  65  96 W3        29.72R
MERRILL        NOT AVBL
$$

WIZ029-030-035-036-043>047-021300-
CENTRAL WISCONSIN

CITY           SKY/WX    TMP DP  RH WIND       PRES   REMARKS
WAUSAU         CLOUDY    69  66  90 CALM      29.70R
6HR MIN TEMP:  65; 6HR MAX TEMP:  70; 6HR PCP:  0.13;

MOSINEE        MOSUNNY   66  66 100 SW3       29.72S
MARSHFIELD     SUNNY     70  65  84 SW8       29.71R
6HR MIN TEMP:  65; 6HR MAX TEMP:  70; 6HR PCP: TRACE;

STEVENS POINT  SUNNY     66  65  97 SW7       29.71S
WAUPACA        MOSUNNY   69  67  93 S6        29.71F
6HR MIN TEMP:  63; 6HR MAX TEMP:  69;

WAUTOMA        NOT AVBL
WISC RAPIDS    SUNNY     73  67  81 SW10      29.71F
6HR MIN TEMP:  66; 6HR MAX TEMP:  73; 6HR PCP: TRACE;

CAMP DOUGLAS   NOT AVBL
$$

WIZ011>013-019>022-031-037>040-048>050-021300-
NORTHEAST WISCONSIN

CITY           SKY/WX    TMP DP  RH WIND       PRES   REMARKS
ANTIGO         SUNNY     64  64  99 SW8       29.72R
SHAWANO        MOSUNNY   67  64  88 CALM      29.69F
OCONTO         PTSUNNY   68  68 100 SW7       29.66F
6HR MIN TEMP:  56; 6HR MAX TEMP:  68; 6HR PCP:  0.02;

STURGEON BAY   PTSUNNY   72  64  78 SW10      29.69F
6HR MIN TEMP:  64; 6HR MAX TEMP:  72;

GREEN BAY      CLOUDY    71  67  87 SW6       29.70F
6HR MIN TEMP:  64; 6HR MAX TEMP:  71; 6HR PCP: TRACE;

MANITOWOC      NOT AVBL
APPLETON       PTSUNNY   70  66  88 S9        29.73F
CLINTONVILLE   MOSUNNY   66  64  94 S7        29.69F
OSHKOSH        CLOUDY    69  65  86 S12       29.72F
6HR MIN TEMP:  66; 6HR MAX TEMP:  71;

$$

WIZ032>034-041-042-053>061-021300-
SOUTHWEST WISCONSIN

CITY           SKY/WX    TMP DP  RH WIND       PRES   REMARKS
LA CROSSE      SUNNY     74  67  78 SE7       29.71S
6HR MIN TEMP:  72; 6HR MAX TEMP:  76;

SPARTA         MOSUNNY   72  65  78 SW3       29.73S
VIROQUA        SUNNY     71  70  96 SW9       29.77F
BOSCOBEL       PTSUNNY   72  69  90 SW5       29.77F
6HR MIN TEMP:  69; 6HR MAX TEMP:  74;

PRAIRIE DU CHI PTSUNNY   74  65  73 SW5       29.77S
PLATTEVILLE    MOSUNNY   70  69  96 SW5       29.81F
$$

WIZ056-057-062-063-064-067-068-021300-
SOUTH CENTRAL WISCONSIN

CITY           SKY/WX    TMP DP  RH WIND       PRES   REMARKS
REEDSBURG      MOSUNNY   72  69  90 SW10      29.75S
BARABOO/DELLS  MOSUNNY   73  67  83 SW12      29.75S
LONE ROCK      NOT AVBL
MINERAL POINT  MOSUNNY   72  70  94 SW7       29.80F
MADISON        MOSUNNY   75  68  78 VRB7      29.77F
6HR MIN TEMP:  74; 6HR MAX TEMP:  76;

MIDDLETON      MOSUNNY   73  68  85 SW12      29.78F
WATERTOWN      MOSUNNY   72  72 100 S7        29.78F
6HR MIN TEMP:  67; 6HR MAX TEMP:  72;

MONROE         SUNNY     70  68  94 SW14      29.82S
JANESVILLE     MOSUNNY   72  70  94 S8        29.81S
$$

WIZ051-052-058>065-066-070>072-021300-
SOUTHEAST WISCONSIN

CITY           SKY/WX    TMP DP  RH WIND       PRES   REMARKS
MILWAUKEE      PTSUNNY   75  68  78 SW13G22   29.79F
6HR MIN TEMP:  71; 6HR MAX TEMP:  75;

WAUKESHA       MOSUNNY   72  66  83 SW9       29.81F
MILWAUKEE/TIMM PTSUNNY   72  64  78 SW12      29.79F
RACINE         CLOUDY    73  68  84 SW12      29.81F
6HR MIN TEMP:  70; 6HR MAX TEMP:  73;

BURLINGTON     MOSUNNY   67  66  96 SW5       29.81F
KENOSHA        MOSUNNY   73  68  84 SW8       29.82F
6HR MIN TEMP:  69; 6HR MAX TEMP:  73;

FOND DU LAC    PTSUNNY   73  68  84 S10       29.74F
6HR MIN TEMP:  66; 6HR MAX TEMP:  73;

SHEBOYGAN      MOSUNNY   69  66  90 SW7       29.75F
6HR MIN TEMP:  61; 6HR MAX TEMP:  70;

WEST BEND      MOSUNNY   73  66  78 SW12      29.78S
JUNEAU         PTSUNNY   70  67  92 S10       29.78F
$$

LSZ147-162-021300-
LAKE SUPERIOR

STATION/POSITION TIME  TEMP    WIND        PRES    WAVE
                       AIR SEA DIR/SP/G            HT/PER
                 (UTC) (F)     (DEG/KT/KT) (MB)    (FT/S)
W MID LAKE BUOY  1050   57 54   50/  8/ 10 1002.3F   2/ 3
DEVILS ISLAND    1100   65     190/  5/  6 1002.5F
PORT WING        1100   64     160/  2/  4 1004.1F
SAXON HARBOR     1100   67                 1004.1
$$

LMZ867-665-643>646-021300-
LAKE MICHIGAN

STATION/POSITION TIME  TEMP    WIND        PRES    WAVE
                       AIR SEA DIR/SP/G            HT/PER
                 (UTC) (F)     (DEG/KT/KT) (MB)    (FT/S)
CHAMBERS ISLAND  1100   68     190/  4/  6 1005.1F
S GREEN BAY BUOY 1100   70 67  220/ 16/ 19 1007.8R
N MID LAKE BUOY  1050   70 68  190/ 14/ 16 1004.7F   2/ 4
NORTHPORT PIER   1100   65     170/  4/  7 1005.1F
ALGOMA LAKESHORE 1012          200/ 10/ 11   N/A
KEWAUNEE LAKESHO 1100   71     240/  7/ 12 1006.4F
SHEBOYGAN LAKESH 1100   69     200/  8/  8 1007.7F
PORT WASHINGTON  1140   68     250/  5/  7 1008.8F
ATWATER BUOY     1100   72 58  230/ 14/ 17 1010.0F
MILWAUKEE LAKESH 1100   74     240/ 12/ 15   N/A
KENOSHA   LAKESH 1100   75     240/  9/ 14 1009.8S
$$

TC  - TEMPERATURE IN CELSIUS
VSB - VISIBILITY IN STATUTE MILES
WCI - WIND CHILL INDEX
HX  - HEAT INDEX



USA.gov is the U.S. government's official web portal to all federal, state and local government web resources and services.